CW9203 Auckland NZ current weather conditions

sailwx.info

Wind from 229

Air temperature 21.7° C
Dewpoint 18.3° C

Last reported at 2020-Jan-26 07:03 UTC.
Time now 2020-Jan-26 08:13 UTC

Location: S 36°54' E 174°44'.
View on Google Maps.

See reports from other nearby stations

  
Tides and Currents Weather Stations Pressure Air Temp Water Temp Dewpoint Dewpoint Depression Visibility Wind Speed Wind Dir Waves Ship Positions
date/time (UTC)wind fromknots sea level pressurealtimeterstation pressurevisibilityair tempwater tempwave heightnotes
2020-Jan-26 07:03 229 21.7
2020-Jan-26 06:48 140 21.7
2020-Jan-26 06:43 169 21.7
2020-Jan-26 06:33 181 21.7
2020-Jan-26 06:18 208 22.2
2020-Jan-26 06:13 173 0 gusting 6 22.2
2020-Jan-26 06:03 170 22.2
2020-Jan-26 05:43 151 1 gusting 10 22.2
2020-Jan-26 05:38 198 22.8
2020-Jan-26 05:33 161 22.8
2020-Jan-26 05:18 135 23.3
2020-Jan-26 05:08 166 23.3
2020-Jan-26 04:48 143 23.9
2020-Jan-26 04:38 093 23.9
2020-Jan-26 04:18 164 1 gusting 10 23.9
2020-Jan-26 04:13 186 0 gusting 6 23.9
2020-Jan-26 03:48 160 0 gusting 10 24.4
2020-Jan-26 03:43 227 24.4
2020-Jan-26 03:38 199 0 gusting 8 24.4
2020-Jan-26 03:33 174 23.9
2020-Jan-26 03:13 151 24.4
2020-Jan-26 03:08 164 25.0
2020-Jan-26 03:03 221 0 gusting 6 25.0
2020-Jan-26 02:48 242 25.0
2020-Jan-26 02:43 233 25.0
2020-Jan-26 02:38 195 24.4
2020-Jan-26 02:33 188 0 gusting 8 24.4
2020-Jan-26 02:13 157 0 gusting 6 24.4
2020-Jan-26 02:08 227 24.4
2020-Jan-26 02:03 153 0 gusting 10 24.4
2020-Jan-26 01:43 203 0 gusting 6 25.0
2020-Jan-26 01:38 218 25.0
2020-Jan-26 01:33 214 25.0
2020-Jan-26 01:13 203 25.0
2020-Jan-26 01:08 233 25.0
2020-Jan-26 00:48 229 25.6
2020-Jan-26 00:33 186 1 gusting 10 25.0
2020-Jan-26 00:13 193 25.6
2020-Jan-26 00:08 181 25.6
2020-Jan-26 00:03 152 25.6
2020-Jan-25 23:48 234 25.6
2020-Jan-25 23:43 235 25.0
2020-Jan-25 23:38 220 25.0
2020-Jan-25 23:33 148 25.0
2020-Jan-25 23:18 141 0 gusting 4 25.0
2020-Jan-25 23:03 138 25.0
2020-Jan-25 22:48 156 0 gusting 6 23.9
2020-Jan-25 22:38 171 0 gusting 7 23.3
2020-Jan-25 22:18 158 2 gusting 11 23.3
2020-Jan-25 22:08 163 1 gusting 11 23.3
2020-Jan-25 22:03 178 0 gusting 10 23.9
2020-Jan-25 21:43 153 23.3
2020-Jan-25 21:38 195 0 gusting 6 23.3
2020-Jan-25 21:33 141 23.3
2020-Jan-25 21:18 147 0 gusting 7 22.8
2020-Jan-25 21:13 223 0 gusting 8 22.8
2020-Jan-25 21:08 162 0 gusting 2 23.3
2020-Jan-25 21:03 155 22.8
2020-Jan-25 20:33 128 1 gusting 8 22.8
2020-Jan-25 20:18 154 22.2
2020-Jan-25 20:13 143 1 gusting 6 21.7
2020-Jan-25 19:48 147 0 gusting 2 22.2
2020-Jan-25 19:38 157 0 gusting 6 21.7
2020-Jan-25 19:33 177 1 gusting 6 21.7
2020-Jan-25 19:18 148 21.1
2020-Jan-25 19:13 142 21.1
2020-Jan-25 19:08 128 20.6
2020-Jan-25 19:03 183 20.6
2020-Jan-25 18:43 156 0 gusting 5 20.6
2020-Jan-25 18:38 142 20.6
2020-Jan-25 18:33 142 20.0
2020-Jan-25 18:18 132 20.6
2020-Jan-25 18:13 147 20.6
2020-Jan-25 18:03 143 20.0
2020-Jan-25 17:48 151 20.0
2020-Jan-25 17:38 127 20.0
2020-Jan-25 17:33 158 20.0
2020-Jan-25 17:18 149 20.0
2020-Jan-25 17:13 153 20.0
2020-Jan-25 16:48 168 20.0
2020-Jan-25 16:43 170 20.0
2020-Jan-25 16:38 158 20.0
2020-Jan-25 16:33 149 20.0
2020-Jan-25 16:13 150 20.0
2020-Jan-25 16:08 167 20.0
2020-Jan-25 16:03 152 20.0
2020-Jan-25 15:48 170 20.0
2020-Jan-25 15:43 176 20.0
2020-Jan-25 15:38 149 20.0
2020-Jan-25 15:33 149 20.0
2020-Jan-25 15:18 173 20.0
2020-Jan-25 15:13 155 20.0
2020-Jan-25 15:08 183 20.0
2020-Jan-25 15:03 181 20.0
2020-Jan-25 14:48 195 20.0
2020-Jan-25 14:33 184 0 gusting 5 20.0
2020-Jan-25 14:18 169 20.0
2020-Jan-25 14:13 156 20.0
2020-Jan-25 14:08 140 20.0
2020-Jan-25 13:43 163 20.0
2020-Jan-25 13:38 156 20.0
2020-Jan-25 13:33 143 20.0
2020-Jan-25 13:18 153 20.6
2020-Jan-25 13:13 158 20.6
2020-Jan-25 13:08 149 20.6
2020-Jan-25 13:03 151 20.6
2020-Jan-25 12:48 153 0 gusting 2 20.6
2020-Jan-25 12:43 152 20.6
2020-Jan-25 12:38 152 20.6
2020-Jan-25 12:03 145 20.6
2020-Jan-25 11:48 142 20.6
2020-Jan-25 11:43 150 2 gusting 10 20.6
2020-Jan-25 11:38 173 20.6
2020-Jan-25 11:18 180 20.6
2020-Jan-25 11:08 159 0 gusting 5 20.6
2020-Jan-25 10:48 170 20.6
2020-Jan-25 10:43 163 20.6
2020-Jan-25 10:38 123 20.6
2020-Jan-25 10:33 152 21.1
2020-Jan-25 10:18 155 21.1
2020-Jan-25 10:13 210 21.1
2020-Jan-25 10:08 074 21.1
2020-Jan-25 10:03 322 21.1
2020-Jan-25 09:43 179 21.1
2020-Jan-25 09:38 141 21.1
2020-Jan-25 09:13 165 21.1
2020-Jan-25 09:08 171 21.1
2020-Jan-25 08:48 151 21.1
2020-Jan-25 08:38 168 21.1
2020-Jan-25 08:13 163 21.1
2020-Jan-25 08:08 150 21.1
2020-Jan-25 08:03 170 0 gusting 4 21.1
2020-Jan-25 07:33 144 21.1
2020-Jan-25 07:18 205 21.1
2020-Jan-25 07:13 127 21.1
2020-Jan-25 07:08 198 21.7
2020-Jan-25 07:03 207 21.7
2020-Jan-25 06:48 163 21.7
2020-Jan-25 06:43 230 22.2
2020-Jan-25 06:38 237 22.2
2020-Jan-25 06:18 221 22.2
2020-Jan-25 06:08 184 22.8
2020-Jan-25 06:03 210 22.8
2020-Jan-25 05:48 224 22.8
2020-Jan-25 05:43 239 22.8
2020-Jan-25 05:38 212 0 gusting 5 22.8
2020-Jan-25 05:33 198 23.3
2020-Jan-25 05:18 177 0 gusting 6 23.3
2020-Jan-25 05:13 176 23.9
2020-Jan-25 05:08 182 23.9
2020-Jan-25 05:03 254 23.9
2020-Jan-25 04:48 203 23.9
2020-Jan-25 04:43 223 23.9
2020-Jan-25 04:38 164 0 gusting 7 24.4
2020-Jan-25 04:18 179 24.4
2020-Jan-25 04:13 148 24.4
2020-Jan-25 04:03 185 24.4
2020-Jan-25 03:48 177 24.4
2020-Jan-25 03:43 230 24.4
2020-Jan-25 03:38 161 24.4
2020-Jan-25 03:33 231 24.4
2020-Jan-25 03:18 235 23.9
2020-Jan-25 03:08 223 0 gusting 10 23.9
2020-Jan-25 02:48 189 24.4
2020-Jan-25 02:43 240 24.4
2020-Jan-25 02:38 240 24.4
2020-Jan-25 02:33 224 24.4
2020-Jan-25 02:18 223 24.4
2020-Jan-25 02:13 207 24.4
2020-Jan-25 02:08 213 24.4
2020-Jan-25 02:03 246 24.4
2020-Jan-25 01:48 196 24.4
2020-Jan-25 01:18 176 25.0
2020-Jan-25 01:13 238 24.4
2020-Jan-25 01:08 206 24.4
2020-Jan-25 01:03 173 0 gusting 7 24.4
2020-Jan-25 00:38 171 24.4
2020-Jan-25 00:33 232 23.9
2020-Jan-25 00:18 210 1 gusting 8 23.9
2020-Jan-25 00:03 200 23.9
2020-Jan-24 23:48 190 2 gusting 10 23.3
2020-Jan-24 23:43 173 0 gusting 5 23.9
2020-Jan-24 23:33 149 0 gusting 10 23.9
2020-Jan-24 23:18 183 0 gusting 2 23.9
2020-Jan-24 23:13 209 23.9
2020-Jan-24 23:03 151 23.3
2020-Jan-24 22:48 193 23.9
2020-Jan-24 22:43 192 23.3
2020-Jan-24 22:33 155 23.9
2020-Jan-24 22:13 062 22.8
2020-Jan-24 22:08 206 22.8
2020-Jan-24 22:03 199 22.2
2020-Jan-24 21:43 131 22.2
2020-Jan-24 21:33 119 22.2
2020-Jan-24 21:13 233 21.7
2020-Jan-24 21:08 232 21.7
2020-Jan-24 21:03 241 21.7
2020-Jan-24 20:48 228 22.2
2020-Jan-24 20:43 198 21.7
2020-Jan-24 20:38 282 21.7
2020-Jan-24 20:33 249 21.1
2020-Jan-24 20:03 130 20.6
2020-Jan-24 19:48 138 20.6
2020-Jan-24 19:13 100 19.4
2020-Jan-24 19:08 146 19.4
2020-Jan-24 18:43 079 18.9
2020-Jan-24 18:38 075 18.9
2020-Jan-24 18:18 249 18.9
2020-Jan-24 18:13 254 18.9
2020-Jan-24 18:08 257 18.9
2020-Jan-24 17:48 139 18.9
2020-Jan-24 17:43 139 18.9
2020-Jan-24 17:38 133 18.3
2020-Jan-24 17:33 126 18.9
2020-Jan-24 17:18 128 18.9
2020-Jan-24 17:13 139 18.9
2020-Jan-24 17:08 131 18.9
2020-Jan-24 16:18 135 18.9
2020-Jan-24 16:13 150 18.9
2020-Jan-24 15:48 154 18.9
2020-Jan-24 15:43 134 18.9
2020-Jan-24 15:33 139 18.9
2020-Jan-24 15:18 152 18.9
2020-Jan-24 15:13 165 18.9
2020-Jan-24 14:48 138 18.9
2020-Jan-24 14:33 133 18.9
2020-Jan-24 14:18 123 18.9
2020-Jan-24 14:08 139 18.9
2020-Jan-24 14:03 156 19.4
2020-Jan-24 13:43 177 19.4
2020-Jan-24 13:38 116 19.4
2020-Jan-24 13:33 136 19.4
2020-Jan-24 13:18 147 19.4
2020-Jan-24 13:13 143 19.4
2020-Jan-24 13:08 134 19.4
2020-Jan-24 13:03 142 19.4
2020-Jan-24 12:48 145 19.4
2020-Jan-24 12:43 170 19.4
2020-Jan-24 12:38 116 19.4
2020-Jan-24 12:33 191 19.4
2020-Jan-24 12:18 239 18.9
2020-Jan-24 12:13 237 18.9
2020-Jan-24 12:08 238 18.9
2020-Jan-24 11:48 238 18.9
2020-Jan-24 11:18 222 18.3
2020-Jan-24 11:13 222 18.3
2020-Jan-24 11:08 222 18.3
2020-Jan-24 11:03 222 18.3
2020-Jan-24 10:48 223 18.3
2020-Jan-24 10:43 223 18.3
2020-Jan-24 10:38 223 18.9
2020-Jan-24 10:33 223 18.9
2020-Jan-24 10:18 223 18.9
2020-Jan-24 10:13 223 18.9
2020-Jan-24 10:08 223 18.9
2020-Jan-24 10:03 223 19.4
2020-Jan-24 09:48 223 19.4
2020-Jan-24 09:38 220 19.4
2020-Jan-24 09:33 220 19.4
2020-Jan-24 09:13 238 20.0
2020-Jan-24 09:08 238 20.0
2020-Jan-24 09:03 238 20.0
2020-Jan-24 08:48 223 20.0
2020-Jan-24 08:43 215 20.6
2020-Jan-24 08:33 213 20.6
2020-Jan-24 08:08 138 21.1